Location: Aldenham
(51.6667°N, 0.3500°W)
Time: 23:52:06
(UTC+00:00)

A-11 Canister half - Pass Details

Date: 18 February 2026
Orbit: 1512 x 1687 km, 47.2° (Epoch: 8 March)

Event Time Altitude Azimuth Distance (km) Brightness Sun altitude
Rises 20:25:20 0° 215° (SW) 4,932 11.8 -28.8°
Reaches altitude 10° 20:28:46 10° 208° (SSW) 3,943 11.2 -29.3°
Enters shadow 20:35:58 36° 167° (SSE) 2,420 9.7 -30.3°
Maximum altitude 20:37:50 39° 145° (SE) 2,323 - -30.6°
Drops below altitude 10° 20:46:45 10° 81° (E) 3,879 - -31.9°
Sets 20:50:05 0° 74° (ENE) 4,844 - -32.4°
